Weather History for Morgantown, WV

Change the Weather History Date:

Monday, January 17, 2000

  Actual Average Record
Temperature  
Mean Temperature 16 °F 31 °F  
Max Temperature 21 °F 39 °F 66 °F (1990)
Min Temperature 10 °F 24 °F -16 °F (1982)
Degree Days  
Heating Degree Days 50 34  
Month to date heating degree days 575  
Since 1 July heating degree days 2559  
Cooling Degree Days 0 0  
Month to date cooling degree days 0  
Year to date cooling degree days 0  
Moisture  
Dew Point 2 °F    
Average Humidity 52    
Maximum Humidity 73    
Minimum Humidity 35    
Precipitation  
Precipitation 0.00 in 0.09 in 0.64 in (1952)
Month to date precipitation 1.53  
Year to date precipitation 1.53  
Sea Level Pressure  
Sea Level Pressure 30.54 in    
Wind  
Wind Speed 6 mph (North)    
Max Wind Speed 9 mph    
Max Gust Speed 16 mph    
Visibility 10 miles    
Events Snow    
T = Trace of Precipitation, MM = Missing Value Source: NWS Daily Summary

Daily Weather History Graph

Daily Weather History Graph

Search for Another Location

Airport:

Trip Planner

Search our weather history database for the weather conditions in past years. The results will help you decide how hot, cold, wet, or windy it might be!

Date:

Astronomy

Jan. 17, 2000 Rise Set
Actual Time 7:38 AM EST 5:21 PM EST
Civil Twilight 7:08 AM EST 5:50 PM EST
Nautical Twilight 6:35 AM EST 6:24 PM EST
Astronomical Twilight 6:03 AM EST 6:56 PM EST
Moon 2:07 PM EST (1/17) 3:39 AM EST (1/17)
Length of Visible Light 10h 42m
Length of Day
9h 43m
Waxing Gibbous, 83% of the Moon is Illuminated
Jan 17
Waxing Gibbous
Jan 20
Full
Jan 28
Last Quarter
Feb 5
New
Feb 12
First Quarter

Hourly Weather History & Observations

Time (EST) Temp. Windchill Dew Point Humidity Pressure Visibility Wind Dir Wind Speed Gust Speed Precip Events Conditions
12:53 AM 19.9 °F 11.1 °F 12.0 °F 71% 30.51 in 9.0 mi Variable 6.9 mph - 0.00 in Snow Light Snow
1:53 AM 19.0 °F 8.2 °F 10.9 °F 71% 30.53 in 9.0 mi North 9.2 mph 16.1 mph 0.00 in Snow Light Snow
2:53 AM 18.0 °F 11.1 °F 9.0 °F 68% 30.56 in 9.0 mi Variable 4.6 mph - 0.00 in   Scattered Clouds
3:53 AM 16.0 °F 7.4 °F 7.0 °F 68% 30.57 in 10.0 mi NNW 5.8 mph - N/A   Mostly Cloudy
4:53 AM 14.0 °F 6.5 °F 3.9 °F 64% 30.58 in 10.0 mi Variable 4.6 mph - N/A   Scattered Clouds
5:53 AM 12.9 °F 2.6 °F 5.0 °F 71% 30.60 in 9.0 mi NNW 6.9 mph - 0.00 in Snow Light Snow
6:53 AM 12.0 °F 5.9 °F 5.0 °F 73% 30.62 in 10.0 mi Variable 3.5 mph - 0.00 in   Mostly Cloudy
7:53 AM 10.0 °F -0.9 °F 1.9 °F 70% 30.63 in 10.0 mi Variable 6.9 mph - N/A   Scattered Clouds
8:53 AM 12.0 °F 1.5 °F 1.9 °F 64% 30.64 in 10.0 mi North 6.9 mph - N/A   Scattered Clouds
9:53 AM 14.0 °F 5.1 °F 1.0 °F 56% 30.63 in 10.0 mi NNE 5.8 mph - N/A   Scattered Clouds
10:53 AM 15.1 °F 5.2 °F -0.0 °F 51% 30.64 in 10.0 mi North 6.9 mph - N/A   Partly Cloudy
11:53 AM 17.1 °F 6.6 °F -0.0 °F 47% 30.61 in 10.0 mi NNW 8.1 mph - N/A   Partly Cloudy
12:53 PM 19.0 °F - -0.0 °F 43% 30.58 in 10.0 mi Calm Calm - N/A   Clear
1:53 PM 21.0 °F 11.4 °F -0.9 °F 38% 30.54 in 10.0 mi NNE 8.1 mph - N/A   Clear
2:53 PM 21.0 °F 16.2 °F -2.0 °F 36% 30.53 in 10.0 mi Variable 3.5 mph - N/A   Partly Cloudy
3:53 PM 21.9 °F 17.2 °F -2.0 °F 35% 30.52 in 10.0 mi Variable 3.5 mph - N/A   Mostly Cloudy
4:53 PM 19.9 °F - -2.0 °F 38% 30.51 in 10.0 mi Calm Calm - N/A   Mostly Cloudy
5:53 PM 18.0 °F 12.7 °F -2.0 °F 41% 30.51 in 10.0 mi North 3.5 mph - N/A   Mostly Cloudy
6:53 PM 19.0 °F 11.1 °F -2.9 °F 38% 30.49 in 10.0 mi ENE 5.8 mph - N/A   Mostly Cloudy
7:53 PM 18.0 °F 9.8 °F -2.9 °F 40% 30.48 in 10.0 mi NE 5.8 mph - N/A   Mostly Cloudy
8:53 PM 19.0 °F 11.1 °F -2.0 °F 40% 30.46 in 10.0 mi NE 5.8 mph - N/A   Overcast
9:53 PM 18.0 °F 9.8 °F -2.0 °F 41% 30.44 in 10.0 mi NNE 5.8 mph - N/A   Overcast
10:53 PM 18.0 °F 9.8 °F -2.0 °F 41% 30.41 in 10.0 mi North 5.8 mph - N/A   Overcast
11:53 PM 18.0 °F 12.7 °F -0.9 °F 44% 30.37 in 10.0 mi NNE 3.5 mph - N/A   Overcast